Location: Santa Cristina
(46.5667°N, 11.7167°E)
Time: 17:39:15
(UTC+00:00)

CREW DRAGON DEMO-1 DEB - Pass Details

Date: 21 April 2021
Orbit: 304 x 308 km, 51.6° (Epoch: 11 May)

Event Time Altitude Azimuth Distance (km) Brightness Sun altitude
Exits shadow 02:39:59 17° 308° (NW) 885 4.5 -15.3°
Maximum altitude 02:41:22 26° 355° (N) 651 4.3 -15.1°
Drops below altitude 10° 02:43:42 10° 56° (NE) 1,200 6.8 -14.8°
Sets 02:45:50 0° 70° (ENE) 2,033 8.1 -14.5°
